Tracking 23610 objects as of 19-Sep-2021
HD Live streaming from Space Station
objects crossing your sky now

DMSP 5D-2 F13 DEB

Track DMSP 5D-2 F13 DEB now!
10-day predictions


NORAD ID: 40490
Int'l Code: 1995-015CD
Perigee: 839.8 km
Apogee: 1,090.1 km
Inclination: 98.8 °
Period: 104.2 minutes
Semi major axis: 7335 km
RCS: Unknown
Launch date: March 24, 1995
Source: United States (US)
Launch site: AIR FORCE WESTERN TEST RANGE (AFWTR)

Note: This is SATELLITE DEBRIS
aabbcc
Your satellite tracking list
Your tracking list is empty




NASA's NSSDC Master Catalog

Two Line Element Set (TLE):
1 40490U 95015CD  21261.42789471  .00000352  00000-0  32871-3 0  9995
2 40490  98.7604 125.8084 0170579 208.2324 150.9505 13.81714393328627
Source of the keplerian elements: AFSPC